Location: Unnamed
(23.5608°S, 46.6833°W)
Time: 22:06:03
(UTC-03:00)

STARLINK-5262 - Pass Details

Date: 05 December 2022
Orbit: 539 x 540 km, 53.2° (Epoch: 29 January)

Event Time Altitude Azimuth Distance (km) Brightness Sun altitude
Exits shadow 04:40:38 - 301° (WNW) 1,882 ? -7.2°
Reaches altitude 10° 04:40:51 10° 300° (WNW) 1,800 ? -7.2°
Maximum altitude 04:44:44 42° 229° (SW) 789 ? -6.4°
Drops below altitude 10° 04:48:39 10° 157° (SSE) 1,815 ? -5.6°
Sets 04:50:59 0° 150° (SSE) 2,712 ? -5.1°
